NOAA 16 DEB, 41425

Orbit data source: Space-Track

NOAA 16 DEB, 41425 is space debris in SSO originally from a launch on Thu, 21 Sep 2000 UTC launched from the Air Force Western Test Range (AFWTR). Debris objects in space refer to the collection of defunct objects orbiting the Earth. Examples of debris include non-operational satellites, rocket bodies, and fragments generated from explosions, collisions, or faulty payload assembly.

Loading next visibility...
Identifier
41425, 2000-055LE
Orbit
SSO
Country
Flag of USUS
Related business
Manufacturer
Unknown
Mission
Spacecraft
Bus & Motor
Unknown
Mass
Unknown
Launch date (UTC)
2000-09-21 (26 years ago)
Launch vehicle
Unknown
Launch site
Air Force Western Test Range (AFWTR)
Object type
Payload
Rocket body
Debris
Shape & HBR
Unknown shape, 0.1 m
Radar Cross Section
Medium (>0.1 m² and <1 m²)

Expand to show TLE details & history
Last TLE update: 21 hours ago

TLE from 21 hours ago
0 NOAA 16 DEB
1 41425U 00055LE  26264.54770864  .00004898  00000-0  96425-3 0  9995
2 41425  98.9546 165.5756 0035236  84.6128 275.9090 14.62685096555657
Epoch: 2026-09-21T13:08Z
TLE epoch observation values (Epoch: 2026-09-21T13:08:42.026Z)
Latitude
0.00002°
Longitude
-32.02548°
Altitude
685.006 km
Speed
7.515 km/s
True Right ascension
11h 02m 18s
True Declination
0° 00' 00"
Sunlit
Object was in daylight at epoch
Visualization orbit readout
Latitude
Unknown
Longitude
Unknown
Altitude
Unknown
Speed
Unknown
Apparent Right ascension
Unknown
Apparent Declination
Unknown
Sunlit
N/A
Visualization observer readout
Local Sidereal Time
03:22:42
Azimuth
Unknown
Elevation
Unknown
Doppler factor
Unknown
Orbital elements
Apogee altitude
706.507 km
Perigee altitude
656.755 km
Semi-major axis
7,059.768 km
Eccentricity
0.00352
Inclination
98.9546°
RAAN
165.5756°
Arg. of periapsis
84.6128°
True anomaly
275.50719°
Mean anomaly
275.909°
Eccentric anomaly
275.70811°
Mean motion
3.65896 °/min
Orbital period
98.39 mins
BSTAR
0.00096425
Loading maneuver chart data...
Computing Atmospheric mass density...
Loading historical data...
Loading historical data...
Loading historical data...
Loading historical data...
Loading historical data...
Loading historical data...
Loading historical data...

Documentation

Showing up to 5 results
|